Skip Page Navigation
NASA JPL Caltech
NASA Logo - Jet Propulsion Laboratory + View the NASA Portal
+ Near-Earth Object (NEO) Program
Search JPL
JPL Home Earth Solar System Stars & Galaxies Technology
JPL Solar System Dynamics
BODIES ORBITS EPHEMERIDES TOOLS PHYSICAL DATA DISCOVERY FAQ SITE MAP
JPL Small-Body Database Browser
Search: [ help ]  
39427 Charlottebronte (3360 T-2)
Classification: Outer Main-belt Asteroid          SPK-ID: 2039427
Ephemeris | Orbit Diagram | Orbital Elements | Physical Parameters | Discovery Circumstances | Close-Approach Data ]

[ show orbit diagram ]
Orbital Elements at Epoch 2456800.5 (2014-May-23.0) TDB
Reference: JPL 8 (heliocentric ecliptic J2000)
 Element Value Uncertainty (1-sigma)   Units 
e .1878208337681551 6.4155e-08  
a 3.974600284369847 7.1633e-08 AU
q 3.228087545064356 2.6003e-07 AU
i 3.874912355405932 9.0556e-06 deg
node 68.56670652008702 0.00011228 deg
peri 243.0089134340866 0.00011527 deg
M 80.45371084677123 2.6003e-05 deg
tp 2456153.681853851943
(2012-Aug-14.18185385)
0.00020852 JED
period 2894.267152658571
7.92
7.8244e-05
2.142e-07
d
yr
n .12438381842855 3.3626e-09 deg/d
Q 4.721113023675338 8.5087e-08 AU
  Orbit Determination Parameters
   # obs. used (total)      762  
   data-arc span      14753 days (40.39 yr)  
   first obs. used      1973-09-19  
   last obs. used      2014-02-09  
   planetary ephem.      DE431  
   SB-pert. ephem.      SB431-BIG16  
   condition code      0  
   fit RMS      .57745  
   data source      ORB  
   producer      Otto Matic  
   solution date      2014-Feb-19 18:58:12  

Additional Information
 Earth MOID = 2.21551 AU 
 T_jup = 3.022 
[ show covariance matrix ]

Ephemeris | Orbit Diagram | Orbital Elements | Physical Parameters | Discovery Circumstances | Close-Approach Data ]

Physical Parameter Table
Parameter Symbol Value Units Sigma Reference Notes
absolute magnitude H 12.5 mag n/a MPO267838  

39427 Charlottebrontë           Discovered 1973 Sept. 25 by C. J. van Houten and I. van Houten-Groeneveld on Palomar Schmidt plates taken by T. Gehrels.
Charlotte Brontë (1816-1855) was a renowned English novelist and poet, best known for her remarkable work Jane Eyre.
NOTE: some special characters may not display properly (any characters within {} are an attempt to place the proper accent above a character)
Reference: 20060219/MPCPages.arcLast Updated: 2010-06-03

[ show close-approach data ]
Alternate Designations
 3360 T-2 = 1997 TF28 = 1998 XV8 = 2001 DF32 
Ephemeris | Orbit Diagram | Orbital Elements | Physical Parameters | Discovery Circumstances | Close-Approach Data ]
ABOUT SSD CREDITS/AWARDS PRIVACY/COPYRIGHT GLOSSARY LINKS
FirstGov 2014-Apr-23 17:01 UT
(server date/time)  
NASA Home Page
Site Manager:   Donald K. Yeomans
Webmaster  Alan B. Chamberlin